Weather History for Kankakee, IL

Change the Weather History Date:

Sunday, July 28, 2013

  Actual Average Record
Temperature  
Mean Temperature 58 °F -  
Max Temperature 70 °F 85 °F 96 °F (2010)
Min Temperature 46 °F 62 °F 46 °F (2013)
Degree Days  
Heating Degree Days 7    
Growing Degree Days 8 (Base 50)    
Moisture  
Dew Point 49 °F    
Average Humidity 70    
Maximum Humidity 96    
Minimum Humidity 43    
Precipitation  
Precipitation 0.00 in - - ()
Sea Level Pressure  
Sea Level Pressure 29.97 in    
Wind  
Wind Speed 7 mph (West)    
Max Wind Speed 17 mph    
Max Gust Speed 24 mph    
Visibility 10 miles    
Events Rain    
Averages and records for this station are not official NWS values.
T = Trace of Precipitation, MM = Missing Value Source: NWS Daily Summary

Daily Weather History Graph

Daily Weather History Graph

Search for Another Location

Airport:

Trip Planner

Search our weather history database for the weather conditions in past years. The results will help you decide how hot, cold, wet, or windy it might be!

Date:

Astronomy

Jul. 28, 2013 Rise Set
Actual Time 5:43 AM CDT 8:11 PM CDT
Civil Twilight 5:12 AM CDT 8:42 PM CDT
Nautical Twilight 4:33 AM CDT 9:21 PM CDT
Astronomical Twilight 3:49 AM CDT 10:04 PM CDT
Moon 11:28 PM CDT (7/28) 12:29 PM CDT (7/28)
Length of Visible Light 15h 30m
Length of Day
14h 27m
Waning Gibbous, 60% of the Moon is Illuminated
Jul 28
Waning Gibbous
Jul 29
Last Quarter
Aug 6
New
Aug 14
First Quarter
Aug 20
Full

Hourly Weather History & Observations

Time (CDT) Temp. Windchill Dew Point Humidity Pressure Visibility Wind Dir Wind Speed Gust Speed Precip Events Conditions
12:15 AM 53.6 °F - 47.3 °F 79% 29.94 in 10.0 mi SW 6.9 mph - N/A   Mostly Cloudy
12:35 AM 54.5 °F - 47.5 °F 77% 29.94 in 10.0 mi WSW 5.8 mph - N/A   Overcast
12:55 AM 54.7 °F - 46.9 °F 75% 29.94 in 10.0 mi WSW 8.1 mph - N/A   Mostly Cloudy
1:15 AM 54.5 °F - 46.4 °F 74% 29.94 in 10.0 mi WSW 5.8 mph - N/A   Scattered Clouds
1:35 AM 52.3 °F - 46.9 °F 82% 29.94 in 10.0 mi WSW 5.8 mph - N/A   Clear
1:55 AM 51.1 °F - 46.9 °F 86% 29.94 in 10.0 mi WSW 4.6 mph - N/A   Clear
2:15 AM 50.7 °F - 47.3 °F 88% 29.94 in 10.0 mi WSW 4.6 mph - N/A   Clear
2:35 AM 49.6 °F - 46.8 °F 90% 29.93 in 10.0 mi SW 3.5 mph - N/A   Clear
2:55 AM 49.1 °F - 46.6 °F 91% 29.93 in 10.0 mi SW 3.5 mph - N/A   Clear
3:15 AM 47.5 °F - 45.9 °F 94% 29.93 in 10.0 mi SW 4.6 mph - N/A   Clear
3:35 AM 46.2 °F 44.1 °F 45.1 °F 96% 29.92 in 10.0 mi WSW 4.6 mph - N/A   Clear
3:55 AM 47.8 °F - 46.0 °F 93% 29.93 in 10.0 mi WSW 5.8 mph - N/A   Scattered Clouds
4:15 AM 48.9 °F - 46.6 °F 92% 29.93 in 10.0 mi SW 5.8 mph - N/A   Scattered Clouds
4:35 AM 49.8 °F - 47.5 °F 92% 29.93 in 10.0 mi SW 6.9 mph - N/A   Mostly Cloudy
4:55 AM 50.9 °F - 48.2 °F 90% 29.93 in 10.0 mi WSW 6.9 mph - N/A   Overcast
5:15 AM 51.4 °F - 47.7 °F 87% 29.93 in 10.0 mi WSW 5.8 mph - N/A   Overcast
5:35 AM 51.8 °F - 48.2 °F 88% 29.94 in 10.0 mi WSW 5.8 mph - N/A   Overcast
5:55 AM 52.2 °F - 48.2 °F 86% 29.94 in 10.0 mi SW 3.5 mph - N/A   Overcast
6:15 AM 52.0 °F - 48.9 °F 89% 29.95 in 10.0 mi SSW 4.6 mph - N/A   Overcast
6:35 AM 52.2 °F - 49.3 °F 90% 29.95 in 10.0 mi SW 4.6 mph - N/A   Overcast
6:55 AM 52.9 °F - 49.6 °F 89% 29.94 in 10.0 mi SSW 4.6 mph - N/A   Light Drizzle
7:15 AM 53.6 °F - 49.8 °F 87% 29.94 in 10.0 mi SW 4.6 mph - N/A   Overcast
7:35 AM 54.1 °F - 49.6 °F 85% 29.95 in 10.0 mi SW 5.8 mph - N/A Rain Light Rain
7:55 AM 55.0 °F - 50.5 °F 85% 29.95 in 10.0 mi SW 5.8 mph - N/A Rain Light Rain
8:15 AM 57.2 °F - 50.5 °F 78% 29.95 in 10.0 mi WSW 9.2 mph - N/A Rain Light Rain
8:35 AM 58.1 °F - 49.8 °F 74% 29.95 in 10.0 mi WSW 9.2 mph - N/A   Overcast
8:55 AM 59.5 °F - 50.4 °F 72% 29.95 in 10.0 mi WSW 10.4 mph 16.1 mph N/A   Overcast
9:15 AM 61.3 °F - 50.5 °F 68% 29.95 in 10.0 mi West 13.8 mph 20.7 mph N/A   Overcast
9:35 AM 61.3 °F - 50.2 °F 67% 29.95 in 10.0 mi WNW 11.5 mph 18.4 mph N/A   Overcast
9:55 AM 63.0 °F - 50.7 °F 64% 29.95 in 10.0 mi West 11.5 mph - N/A   Mostly Cloudy
10:15 AM 63.9 °F - 50.9 °F 63% 29.94 in 10.0 mi West 8.1 mph - N/A   Scattered Clouds
10:35 AM 65.1 °F - 50.9 °F 60% 29.95 in 10.0 mi West 11.5 mph 16.1 mph N/A   Scattered Clouds
10:55 AM 63.7 °F - 50.0 °F 61% 29.95 in 10.0 mi West 12.7 mph 20.7 mph N/A   Overcast
11:15 AM 63.5 °F - 50.0 °F 61% 29.95 in 10.0 mi West 9.2 mph 17.3 mph N/A   Overcast
11:35 AM 66.4 °F - 49.8 °F 55% 29.95 in 10.0 mi West 16.1 mph 24.2 mph N/A   Mostly Cloudy
11:55 AM 64.8 °F - 49.1 °F 57% 29.96 in 10.0 mi West 12.7 mph - N/A   Mostly Cloudy
12:15 PM 65.5 °F - 48.7 °F 55% 29.96 in 10.0 mi WNW 13.8 mph 21.9 mph N/A   Mostly Cloudy
12:35 PM 65.3 °F - 47.8 °F 53% 29.96 in 10.0 mi WNW 12.7 mph 23.0 mph N/A   Mostly Cloudy
12:55 PM 68.2 °F - 48.4 °F 49% 29.96 in 10.0 mi West 13.8 mph 21.9 mph N/A   Scattered Clouds
1:15 PM 69.1 °F - 47.8 °F 47% 29.96 in 10.0 mi West 13.8 mph 23.0 mph N/A   Mostly Cloudy
1:35 PM 67.5 °F - 47.7 °F 49% 29.96 in 10.0 mi West 11.5 mph 24.2 mph N/A   Mostly Cloudy
1:55 PM 69.3 °F - 48.4 °F 47% 29.97 in 10.0 mi West 16.1 mph 20.7 mph N/A   Mostly Cloudy
2:15 PM 70.3 °F - 48.0 °F 45% 29.97 in 10.0 mi West 17.3 mph - N/A   Mostly Cloudy
2:35 PM 69.4 °F - 47.5 °F 45% 29.97 in 10.0 mi West 15.0 mph 19.6 mph N/A   Mostly Cloudy
2:55 PM 70.7 °F - 47.3 °F 43% 29.97 in 10.0 mi West 13.8 mph 20.7 mph N/A   Scattered Clouds
3:15 PM 70.5 °F - 47.8 °F 44% 29.97 in 10.0 mi West 17.3 mph 23.0 mph N/A   Mostly Cloudy
3:35 PM 68.2 °F - 47.1 °F 47% 29.98 in 10.0 mi WNW 12.7 mph 19.6 mph N/A   Mostly Cloudy
3:55 PM 70.0 °F - 48.0 °F 46% 29.99 in 10.0 mi West 13.8 mph 18.4 mph N/A   Mostly Cloudy
4:15 PM 69.3 °F - 47.5 °F 46% 29.99 in 10.0 mi NW 10.4 mph 17.3 mph N/A   Mostly Cloudy
4:35 PM 68.7 °F - 47.5 °F 47% 29.99 in 10.0 mi WNW 11.5 mph 17.3 mph N/A   Mostly Cloudy
4:55 PM 67.5 °F - 47.3 °F 48% 29.99 in 10.0 mi WNW 9.2 mph - N/A   Mostly Cloudy
5:15 PM 69.1 °F - 48.2 °F 47% 29.99 in 10.0 mi WNW 9.2 mph - N/A   Overcast
5:35 PM 68.7 °F - 48.0 °F 48% 29.99 in 10.0 mi WNW 5.8 mph - N/A   Mostly Cloudy
5:55 PM 67.6 °F - 48.2 °F 50% 30.00 in 10.0 mi NW 4.6 mph - N/A   Overcast
6:15 PM 67.8 °F - 48.4 °F 50% 30.00 in 10.0 mi WNW 5.8 mph - N/A   Overcast
6:35 PM 67.8 °F - 48.6 °F 50% 30.01 in 10.0 mi NW 5.8 mph - N/A   Scattered Clouds
6:55 PM 67.1 °F - 48.4 °F 51% 30.01 in 10.0 mi NW 5.8 mph - N/A   Clear
7:15 PM 66.2 °F - 48.4 °F 53% 30.02 in 10.0 mi NW 5.8 mph - N/A   Clear
7:35 PM 65.1 °F - 49.1 °F 56% 30.02 in 10.0 mi West 3.5 mph - N/A   Clear
7:55 PM 63.1 °F - 50.0 °F 62% 30.02 in 10.0 mi Calm Calm - N/A   Clear
8:15 PM 61.9 °F - 49.8 °F 65% 30.02 in 10.0 mi Calm Calm - N/A   Clear
8:35 PM 59.0 °F - 50.0 °F 72% 30.03 in 10.0 mi Calm Calm - N/A   Clear
8:55 PM 55.9 °F - 50.0 °F 80% 30.03 in 10.0 mi Calm Calm - N/A   Clear
9:15 PM 54.1 °F - 50.7 °F 88% 30.03 in 10.0 mi Calm Calm - N/A   Clear
9:35 PM 55.4 °F - 50.9 °F 85% 30.04 in 10.0 mi Calm Calm - N/A   Clear
9:55 PM 54.0 °F - 50.0 °F 86% 30.05 in 10.0 mi Calm Calm - N/A   Clear
10:15 PM 51.8 °F - 48.7 °F 89% 30.05 in 10.0 mi Calm Calm - N/A   Clear
10:35 PM 52.0 °F - 49.1 °F 90% 30.06 in 10.0 mi SW 3.5 mph - N/A   Clear
10:55 PM 52.5 °F - 48.9 °F 88% 30.06 in 10.0 mi Calm Calm - N/A   Clear
11:15 PM 52.2 °F - 49.1 °F 89% 30.06 in 10.0 mi Calm Calm - N/A   Clear
11:35 PM 51.3 °F - 48.2 °F 89% 30.06 in 10.0 mi SW 3.5 mph - N/A   Clear
11:55 PM 50.0 °F - 47.7 °F 92% 30.06 in 10.0 mi Calm Calm - N/A   Clear